WXM80 ListenWXM80 Stop

You find our weather info also at:

UK Metoffice

WeatherCloud

Weather Underground

Northeastern Weather Network

AWEKAS

Citizen Weather Observer Program (CWOP)

HAMweather, WeatherForYou, PWS Weather


Weather Underground History page Text

Daily Summary for October 29, 2017 Units:  English    Metric   Both
« Previous Day
Next Day »
Daily Weekly Monthly Yearly Custom
  High: Low: Average:
Temperature: 67.6 °F 61.8 °F 63.9 °F
Dew Point: 67.1 °F 59.8 °F 62.6 °F
Humidity: 99 % 87 % 96 %
Wind Speed: 17.0 mph 0.0 mph 4.1 mph
Wind Gust: 37.0 mph - -
Wind:- - SE
Pressure: 29.90 in 28.70 in -
Precipitation: 1.45 in    
Historical Graphs
 
 
Tabular Data for October 29, 2017
Time Temperature Dew Point Pressure Wind Wind Speed Wind Gust Humidity Rainfall Rate (Hourly)
00:04 62.6 °F 60.5 °F 29.90 in SE 0.9 mph 3.5 mph 93 % 0.00 in
00:09 62.6 °F 60.5 °F 29.90 in SE 1.2 mph 3.0 mph 93 % 0.00 in
00:14 62.7 °F 60.6 °F 29.90 in SSE 1.7 mph 3.5 mph 93 % 0.00 in
00:19 62.8 °F 60.7 °F 29.90 in SE 2.7 mph 5.8 mph 93 % 0.00 in
00:24 62.8 °F 60.4 °F 29.90 in SSE 1.2 mph 8.0 mph 92 % 0.00 in
00:29 62.9 °F 60.5 °F 29.90 in SSE 2.1 mph 3.5 mph 92 % 0.00 in
00:34 63.0 °F 60.6 °F 29.90 in SE 3.3 mph 4.6 mph 92 % 0.00 in
00:39 63.0 °F 60.6 °F 29.90 in SSE 1.5 mph 4.6 mph 92 % 0.00 in
00:44 63.1 °F 60.7 °F 29.90 in SSE 0.8 mph 6.9 mph 92 % 0.00 in
00:49 63.2 °F 60.8 °F 29.90 in ESE 3.5 mph 4.6 mph 92 % 0.00 in
00:54 63.3 °F 60.6 °F 29.90 in SE 3.4 mph 10.4 mph 91 % 0.00 in
01:00 63.4 °F 60.7 °F 29.90 in SSE 2.4 mph 11.5 mph 91 % 0.00 in
01:05 63.5 °F 60.8 °F 29.90 in SE 1.4 mph 2.3 mph 91 % 0.00 in
01:10 63.5 °F 60.8 °F 29.90 in SE 0.5 mph 2.3 mph 91 % 0.00 in
01:15 63.5 °F 60.8 °F 29.89 in SE 1.9 mph 4.6 mph 91 % 0.00 in
01:20 63.6 °F 60.9 °F 29.89 in SSE 2.3 mph 6.9 mph 91 % 0.00 in
01:25 63.6 °F 60.9 °F 29.89 in SSE 4.1 mph 9.2 mph 91 % 0.00 in
01:30 63.7 °F 60.7 °F 29.89 in SSE 4.4 mph 10.4 mph 90 % 0.00 in
01:35 63.8 °F 60.8 °F 29.89 in SE 2.0 mph 4.6 mph 90 % 0.00 in
01:40 63.8 °F 60.8 °F 29.88 in SE 5.3 mph 9.2 mph 90 % 0.00 in
01:45 63.9 °F 60.9 °F 29.88 in SSE 3.4 mph 8.1 mph 90 % 0.00 in
01:50 64.0 °F 61.0 °F 29.88 in SSE 2.1 mph 5.8 mph 90 % 0.00 in
01:55 64.0 °F 61.0 °F 29.88 in SE 3.5 mph 9.0 mph 90 % 0.00 in
02:00 64.1 °F 61.1 °F 29.87 in SE 4.7 mph 9.2 mph 90 % 0.00 in
02:05 64.2 °F 61.2 °F 29.87 in SSE 3.7 mph 8.1 mph 90 % 0.00 in
02:10 64.2 °F 61.2 °F 29.87 in SSE 4.0 mph 6.0 mph 90 % 0.00 in
02:15 64.3 °F 61.3 °F 29.87 in SE 3.5 mph 9.2 mph 90 % 0.00 in
02:20 64.3 °F 61.3 °F 29.87 in SE 2.3 mph 5.8 mph 90 % 0.00 in
02:26 64.4 °F 61.1 °F 29.87 in SSE 3.0 mph 8.0 mph 89 % 0.00 in
02:31 64.5 °F 61.2 °F 29.87 in SSE 1.0 mph 6.0 mph 89 % 0.00 in
02:36 64.5 °F 61.2 °F 29.86 in Calm   7.0 mph 89 % 0.00 in
02:41 64.5 °F 61.2 °F 29.87 in SSE 3.0 mph 8.0 mph 89 % 0.00 in
02:46 64.6 °F 61.3 °F 29.86 in SSE 1.0 mph 8.0 mph 89 % 0.00 in
02:51 64.7 °F 61.4 °F 29.86 in Calm   5.0 mph 89 % 0.00 in
02:56 64.7 °F 61.7 °F 29.86 in South 1.3 mph 3.5 mph 90 % 0.00 in
03:01 64.7 °F 61.7 °F 29.86 in SSE 1.7 mph 6.9 mph 90 % 0.00 in
03:06 64.8 °F 61.8 °F 29.86 in SSE 3.0 mph 8.0 mph 90 % 0.00 in
03:11 64.8 °F 61.8 °F 29.86 in SE 2.3 mph 7.0 mph 90 % 0.00 in
03:16 64.9 °F 61.9 °F 29.86 in SSE 1.0 mph 12.0 mph 90 % 0.00 in
03:26 64.8 °F 61.5 °F 29.86 in SSE 1.0 mph 9.0 mph 89 % 0.00 in
03:31 64.8 °F 61.5 °F 29.85 in SSE 5.0 mph 9.0 mph 89 % 0.00 in
03:36 64.8 °F 61.4 °F 29.85 in South 1.0 mph 6.0 mph 89 % 0.00 in
03:41 64.7 °F 61.4 °F 29.85 in South 1.0 mph 7.0 mph 89 % 0.00 in
03:46 64.6 °F 61.0 °F 29.85 in SSE 1.0 mph 8.0 mph 88 % 0.00 in
03:51 64.6 °F 61.0 °F 29.86 in SSE 1.0 mph 5.0 mph 88 % 0.00 in
03:56 64.5 °F 60.5 °F 29.86 in SSE 5.0 mph 7.0 mph 87 % 0.00 in
04:01 64.5 °F 60.5 °F 29.85 in SSW 0.8 mph 8.1 mph 87 % 0.00 in
04:06 64.4 °F 60.5 °F 29.85 in South 2.0 mph 8.0 mph 87 % 0.00 in
04:11 64.3 °F 60.7 °F 29.85 in SSW 2.7 mph 3.5 mph 88 % 0.00 in
04:16 64.2 °F 60.6 °F 29.84 in South 3.0 mph 6.0 mph 88 % 0.00 in
04:21 64.1 °F 60.5 °F 29.84 in South 2.0 mph 7.0 mph 88 % 0.00 in
04:26 63.9 °F 60.3 °F 29.85 in South 2.0 mph 6.0 mph 88 % 0.00 in
04:31 63.7 °F 60.4 °F 29.85 in SSE 2.0 mph 9.0 mph 89 % 0.00 in
04:41 63.4 °F 60.1 °F 29.84 in Calm   8.0 mph 89 % 0.00 in
04:42 63.3 °F 60.3 °F 29.84 in South 1.1 mph 3.5 mph 90 % 0.00 in
04:48 63.1 °F 60.1 °F 29.84 in SW 1.8 mph 3.5 mph 90 % 0.00 in
04:53 63.0 °F 60.0 °F 29.84 in South 3.0 mph 3.5 mph 90 % 0.00 in
04:58 62.9 °F 59.9 °F 29.84 in SSW 1.5 mph 3.5 mph 90 % 0.00 in
05:03 62.8 °F 60.1 °F 29.84 in Calm   2.3 mph 91 % 0.00 in
05:08 62.7 °F 60.0 °F 29.84 in SSW 0.5 mph 3.5 mph 91 % 0.00 in
05:13 62.6 °F 59.9 °F 29.84 in Calm   1.2 mph 91 % 0.00 in
05:18 62.5 °F 59.8 °F 29.84 in SE 0.2 mph 3.5 mph 91 % 0.00 in
05:23 62.4 °F 60.0 °F 29.84 in Calm     92 % 0.00 in
05:28 62.3 °F 59.9 °F 29.83 in SSE 0.4 mph 3.5 mph 92 % 0.00 in
05:33 62.2 °F 60.2 °F 29.83 in SSE 0.3 mph 1.0 mph 93 % 0.00 in
05:38 62.2 °F 60.2 °F 29.82 in South 1.9 mph 4.0 mph 93 % 0.01 in
05:43 62.1 °F 60.1 °F 29.82 in SE 0.4 mph 3.5 mph 93 % 0.01 in
05:48 62.0 °F 60.0 °F 29.81 in SE 0.8 mph 1.2 mph 93 % 0.02 in
05:53 62.0 °F 60.0 °F 29.81 in SE 1.8 mph 2.3 mph 93 % 0.02 in
05:58 61.9 °F 60.2 °F 29.80 in ESE 1.5 mph 2.3 mph 94 % 0.03 in
06:03 61.9 °F 60.2 °F 29.80 in SE 1.9 mph 4.6 mph 94 % 0.03 in
06:08 61.8 °F 60.1 °F 29.81 in SE 2.0 mph 4.6 mph 94 % 0.03 in
06:14 61.8 °F 60.4 °F 29.80 in SE 2.8 mph 11.5 mph 95 % 0.04 in
06:19 61.8 °F 60.4 °F 29.80 in ESE 3.1 mph 9.0 mph 95 % 0.04 in
06:24 61.8 °F 60.4 °F 29.80 in SSE 2.2 mph 7.0 mph 95 % 0.05 in
06:29 61.8 °F 60.4 °F 29.80 in SE 2.5 mph 6.9 mph 95 % 0.05 in
06:34 61.8 °F 60.6 °F 29.79 in SE 3.8 mph 18.4 mph 96 % 0.05 in
06:39 61.9 °F 60.7 °F 29.80 in ESE 3.0 mph 15.0 mph 96 % 0.05 in
06:44 61.9 °F 60.7 °F 29.80 in SSE 5.4 mph 11.5 mph 96 % 0.05 in
06:49 61.9 °F 60.7 °F 29.80 in ESE 5.6 mph 9.2 mph 96 % 0.04 in
06:54 61.9 °F 60.7 °F 29.79 in SE 7.3 mph 13.0 mph 96 % 0.05 in
06:59 61.9 °F 60.7 °F 29.79 in ESE 8.0 mph 12.7 mph 96 % 0.04 in
07:04 61.9 °F 60.7 °F 29.79 in ESE 6.3 mph 16.1 mph 96 % 0.04 in
07:09 62.0 °F 60.8 °F 29.79 in ESE 4.9 mph 15.0 mph 96 % 0.04 in
07:14 62.0 °F 60.8 °F 29.79 in SSE 3.8 mph 13.8 mph 96 % 0.04 in
07:19 62.1 °F 60.9 °F 29.80 in SE 8.1 mph 16.1 mph 96 % 0.04 in
07:24 62.2 °F 61.0 °F 29.80 in ESE 2.6 mph 9.2 mph 96 % 0.03 in
07:29 62.3 °F 61.4 °F 29.80 in SE 4.0 mph 6.9 mph 97 % 0.03 in
07:34 62.4 °F 61.5 °F 29.79 in SE 4.3 mph 10.4 mph 97 % 0.04 in
07:39 62.4 °F 61.5 °F 29.79 in ESE 3.2 mph 5.8 mph 97 % 0.03 in
07:44 62.4 °F 61.5 °F 29.80 in SE 1.9 mph 5.8 mph 97 % 0.03 in
07:50 62.4 °F 61.5 °F 29.80 in SE 3.3 mph 9.2 mph 97 % 0.03 in
07:55 62.4 °F 61.5 °F 29.80 in SSE 3.2 mph 9.2 mph 97 % 0.02 in
08:00 62.4 °F 61.5 °F 29.79 in ESE 3.4 mph 5.8 mph 97 % 0.02 in
08:05 62.4 °F 61.5 °F 29.79 in ESE 1.7 mph 4.0 mph 97 % 0.03 in
08:10 62.4 °F 61.5 °F 29.78 in SSE 2.8 mph 9.2 mph 97 % 0.02 in
08:15 62.4 °F 61.5 °F 29.78 in ESE 1.9 mph 5.8 mph 97 % 0.03 in
08:20 62.3 °F 61.4 °F 29.78 in SE 3.0 mph 6.9 mph 97 % 0.03 in
08:25 62.3 °F 61.4 °F 29.78 in SE 2.3 mph 4.6 mph 97 % 0.04 in
08:30 62.3 °F 61.4 °F 29.79 in SE 4.5 mph 10.4 mph 97 % 0.04 in
08:35 62.4 °F 61.5 °F 29.79 in SE 3.7 mph 5.0 mph 97 % 0.04 in
08:40 62.3 °F 61.4 °F 29.78 in ESE 4.1 mph 8.1 mph 97 % 0.05 in
08:45 62.3 °F 61.4 °F 29.78 in SE 2.1 mph 3.5 mph 97 % 0.05 in
08:50 62.3 °F 61.4 °F 29.78 in SE 5.3 mph 9.2 mph 97 % 0.06 in
08:55 62.4 °F 61.5 °F 29.77 in ESE 2.2 mph 3.5 mph 97 % 0.07 in
09:00 62.4 °F 61.5 °F 29.78 in SE 0.9 mph 3.5 mph 97 % 0.08 in
09:06 62.4 °F 61.5 °F 29.78 in SE 1.0 mph 3.5 mph 97 % 0.08 in
09:11 62.4 °F 61.5 °F 29.78 in SE 1.0 mph 5.0 mph 97 % 0.00 in
09:16 62.4 °F 61.5 °F 29.77 in SE 1.0 mph 8.0 mph 97 % 0.00 in
09:21 62.4 °F 61.5 °F 29.77 in SE 0.1 mph 2.3 mph 97 % 0.10 in
09:26 62.4 °F 61.5 °F 29.76 in SE 1.0 mph 5.0 mph 97 % 0.00 in
09:31 62.5 °F 61.6 °F 29.76 in SE 2.0 mph 4.0 mph 97 % 0.00 in
09:36 62.5 °F 61.6 °F 29.77 in SSE 1.0 mph 6.0 mph 97 % 0.00 in
09:41 62.5 °F 61.6 °F 29.77 in SE 3.0 mph 7.0 mph 97 % 0.00 in
09:46 62.5 °F 61.6 °F 29.77 in SE 1.0 mph 4.0 mph 97 % 0.01 in
09:51 62.5 °F 61.6 °F 29.76 in SE 1.0 mph 5.0 mph 97 % 0.00 in
09:56 62.5 °F 61.7 °F 29.76 in Calm   6.0 mph 97 % 0.00 in
10:01 62.6 °F 61.7 °F 29.76 in ESE 0.8 mph 1.2 mph 97 % 0.08 in
10:06 62.6 °F 61.7 °F 29.75 in Calm   1.2 mph 97 % 0.08 in
10:11 62.6 °F 61.7 °F 29.75 in SE 0.6 mph 3.5 mph 97 % 0.09 in
10:16 62.6 °F 61.7 °F 29.75 in SSE 0.2 mph 1.2 mph 97 % 0.10 in
10:21 62.6 °F 61.7 °F 29.75 in Calm     97 % 0.11 in
10:26 62.6 °F 62.0 °F 29.75 in SE 0.3 mph 2.3 mph 98 % 0.13 in
10:31 62.6 °F 62.0 °F 29.75 in SE 1.0 mph 4.6 mph 98 % 0.14 in
10:36 62.7 °F 62.1 °F 29.74 in Calm   1.2 mph 98 % 0.17 in
10:41 62.7 °F 62.1 °F 29.73 in Calm     98 % 0.18 in
10:46 62.7 °F 62.1 °F 29.73 in Calm     98 % 0.19 in
10:51 62.7 °F 62.1 °F 29.72 in Calm     98 % 0.21 in
10:56 62.8 °F 62.2 °F 29.72 in Calm     98 % 0.22 in
11:01 62.8 °F 62.2 °F 29.72 in SE 0.5 mph 2.0 mph 98 % 0.23 in
11:06 62.8 °F 62.2 °F 29.72 in Calm   1.2 mph 98 % 0.24 in
11:12 62.8 °F 62.2 °F 29.72 in SE 0.7 mph 2.3 mph 98 % 0.24 in
11:17 62.8 °F 62.2 °F 29.71 in Calm   3.5 mph 98 % 0.24 in
11:22 62.9 °F 62.3 °F 29.70 in SE 1.2 mph 2.3 mph 98 % 0.23 in
11:27 62.9 °F 62.3 °F 29.70 in Calm     98 % 0.23 in
11:32 62.9 °F 62.3 °F 29.71 in SE 1.0 mph 3.5 mph 98 % 0.22 in
11:37 63.0 °F 62.4 °F 29.70 in SE 0.1 mph 1.2 mph 98 % 0.22 in
11:42 63.0 °F 62.4 °F 29.71 in SE 1.0 mph 3.5 mph 98 % 0.21 in
11:47 63.1 °F 62.5 °F 29.70 in SE 1.6 mph 3.5 mph 98 % 0.20 in
11:52 63.1 °F 62.5 °F 29.69 in Calm     98 % 0.20 in
11:57 63.1 °F 62.5 °F 29.69 in SE 1.3 mph 3.5 mph 98 % 0.19 in
12:02 63.1 °F 62.5 °F 29.69 in SE 2.0 mph 3.5 mph 98 % 0.18 in
12:07 63.2 °F 62.6 °F 29.68 in SSE 2.2 mph 3.0 mph 98 % 0.17 in
12:12 63.2 °F 62.6 °F 29.68 in SE 0.8 mph 3.5 mph 98 % 0.16 in
12:16 63.2 °F 62.6 °F 29.68 in Calm   1.2 mph 98 % 0.15 in
12:21 63.2 °F 62.6 °F 29.68 in Calm     98 % 0.14 in
12:26 63.3 °F 62.7 °F 29.68 in SSE 0.9 mph 2.3 mph 98 % 0.13 in
12:31 63.2 °F 62.6 °F 29.67 in SE 1.1 mph 4.6 mph 98 % 0.11 in
12:36 63.2 °F 62.6 °F 29.67 in SE 2.8 mph 6.9 mph 98 % 0.11 in
12:41 63.2 °F 62.6 °F 29.66 in SE 0.2 mph 3.5 mph 98 % 0.09 in
12:42 63.2 °F 62.6 °F 29.66 in Calm   3.5 mph 98 % 0.09 in
12:47 63.2 °F 62.6 °F 29.66 in SSE 1.6 mph 5.8 mph 98 % 0.09 in
12:52 63.2 °F 62.6 °F 29.65 in Calm   1.2 mph 98 % 0.08 in
12:57 63.2 °F 62.6 °F 29.64 in SE 0.9 mph 5.8 mph 98 % 0.07 in
13:02 63.2 °F 62.6 °F 29.64 in SE 0.2 mph 1.2 mph 98 % 0.07 in
13:07 63.2 °F 62.6 °F 29.63 in Calm   1.2 mph 98 % 0.07 in
13:12 63.3 °F 62.7 °F 29.63 in SE 0.2 mph 1.2 mph 98 % 0.06 in
13:17 63.3 °F 62.7 °F 29.63 in SE 0.5 mph 2.3 mph 98 % 0.07 in
13:22 63.4 °F 62.8 °F 29.62 in SE 3.4 mph 5.8 mph 98 % 0.06 in
13:27 63.5 °F 62.9 °F 29.61 in ESE 2.6 mph 6.9 mph 98 % 0.07 in
13:32 63.6 °F 63.0 °F 29.61 in SSE 3.2 mph 3.5 mph 98 % 0.07 in
13:37 63.8 °F 63.2 °F 29.61 in SE 3.1 mph 6.9 mph 98 % 0.07 in
13:42 63.8 °F 63.2 °F 29.60 in ESE 5.0 mph 10.0 mph 98 % 0.08 in
13:48 63.9 °F 63.3 °F 29.61 in South 6.7 mph 8.1 mph 98 % 0.07 in
13:53 64.0 °F 63.4 °F 29.61 in ESE 4.3 mph 10.4 mph 98 % 0.07 in
13:58 64.0 °F 63.4 °F 29.61 in ESE 5.6 mph 18.4 mph 98 % 0.08 in
14:03 64.0 °F 63.4 °F 29.63 in ESE 2.7 mph 11.5 mph 98 % 0.08 in
14:08 64.1 °F 63.5 °F 29.63 in South 4.4 mph 15.0 mph 98 % 0.08 in
14:13 64.1 °F 63.5 °F 29.60 in SE 6.2 mph 15.0 mph 98 % 0.08 in
14:18 64.1 °F 63.5 °F 29.60 in ESE 10.2 mph 16.1 mph 98 % 0.08 in
14:23 64.1 °F 63.5 °F 29.59 in SSE 2.3 mph 8.1 mph 98 % 0.09 in
14:28 64.1 °F 63.5 °F 29.58 in East 5.8 mph 10.4 mph 98 % 0.09 in
14:33 64.1 °F 63.5 °F 29.57 in ESE 10.8 mph 23.0 mph 98 % 0.09 in
14:38 64.1 °F 63.5 °F 29.57 in SSE 6.4 mph 11.0 mph 98 % 0.09 in
14:43 64.2 °F 63.6 °F 29.56 in East 5.2 mph 10.0 mph 98 % 0.09 in
14:48 64.2 °F 63.6 °F 29.56 in ESE 4.5 mph 9.0 mph 98 % 0.08 in
14:53 64.3 °F 63.7 °F 29.56 in SE 5.1 mph 10.4 mph 98 % 0.09 in
14:59 64.3 °F 63.7 °F 29.55 in SE 6.8 mph 17.0 mph 98 % 0.08 in
15:04 64.4 °F 63.8 °F 29.55 in SE 5.0 mph 8.1 mph 98 % 0.08 in
15:09 64.5 °F 63.9 °F 29.54 in SSE 7.0 mph 13.8 mph 98 % 0.08 in
15:14 64.5 °F 63.9 °F 29.54 in East 4.0 mph 11.5 mph 98 % 0.08 in
15:19 64.5 °F 63.9 °F 29.54 in East 3.6 mph 11.5 mph 98 % 0.08 in
15:24 64.6 °F 64.0 °F 29.53 in SSE 6.0 mph 11.5 mph 98 % 0.08 in
15:29 64.6 °F 64.0 °F 29.53 in SE 6.5 mph 11.5 mph 98 % 0.08 in
15:34 64.6 °F 64.0 °F 29.53 in SE 4.3 mph 8.1 mph 98 % 0.07 in
15:39 64.6 °F 64.0 °F 29.53 in ESE 4.8 mph 9.2 mph 98 % 0.08 in
15:44 64.6 °F 64.0 °F 29.52 in SE 9.0 mph 18.4 mph 98 % 0.08 in
15:49 64.5 °F 63.9 °F 29.52 in SE 9.0 mph 16.1 mph 98 % 0.08 in
15:54 64.5 °F 63.9 °F 29.52 in ESE 5.7 mph 11.5 mph 98 % 0.08 in
15:59 64.5 °F 63.9 °F 29.51 in ESE 2.9 mph 10.4 mph 98 % 0.09 in
16:04 64.5 °F 63.9 °F 29.52 in ESE 5.4 mph 10.4 mph 98 % 0.08 in
16:10 64.5 °F 63.9 °F 29.52 in East 6.6 mph 16.1 mph 98 % 0.08 in
16:15 64.5 °F 63.9 °F 29.51 in SE 4.8 mph 14.0 mph 98 % 0.07 in
16:20 64.5 °F 63.9 °F 29.51 in SSE 4.9 mph 11.5 mph 98 % 0.08 in
16:25 64.5 °F 63.9 °F 29.50 in SSE 5.7 mph 11.5 mph 98 % 0.08 in
16:30 64.5 °F 63.9 °F 29.50 in ESE 7.0 mph 11.5 mph 98 % 0.07 in
16:35 64.6 °F 64.0 °F 29.50 in SSE 9.4 mph 18.0 mph 98 % 0.07 in
16:40 64.6 °F 64.0 °F 29.49 in SE 5.9 mph 11.5 mph 98 % 0.08 in
16:45 64.6 °F 64.0 °F 29.49 in SE 4.7 mph 13.0 mph 98 % 0.07 in
16:50 64.7 °F 64.1 °F 29.49 in ESE 4.5 mph 12.7 mph 98 % 0.08 in
16:55 64.7 °F 64.1 °F 29.48 in SE 7.6 mph 11.5 mph 98 % 0.07 in
17:00 64.7 °F 64.1 °F 29.48 in SSE 2.9 mph 9.2 mph 98 % 0.07 in
17:05 64.7 °F 64.1 °F 29.48 in ESE 6.1 mph 9.0 mph 98 % 0.08 in
17:10 64.7 °F 64.1 °F 29.48 in South 8.8 mph 13.8 mph 98 % 0.07 in
17:15 64.7 °F 64.1 °F 29.47 in ESE 6.3 mph 9.2 mph 98 % 0.07 in
17:21 64.7 °F 64.1 °F 29.47 in SE 5.0 mph 12.0 mph 98 % 0.00 in
17:26 64.7 °F 64.1 °F 29.47 in SE 6.0 mph 12.0 mph 98 % 0.00 in
17:31 64.7 °F 64.1 °F 29.47 in ESE 3.0 mph 13.0 mph 98 % 0.00 in
17:36 64.7 °F 64.1 °F 29.46 in ESE 7.0 mph 12.0 mph 98 % 0.00 in
17:40 64.6 °F 64.0 °F 29.46 in ESE 5.7 mph 7.0 mph 98 % 0.07 in
17:46 64.6 °F 64.0 °F 29.45 in SE 6.0 mph 17.0 mph 98 % 0.00 in
17:51 64.6 °F 64.0 °F 29.44 in SE 7.0 mph 12.0 mph 98 % 0.00 in
17:56 64.6 °F 64.0 °F 29.44 in SE 5.0 mph 12.0 mph 98 % 0.00 in
18:01 64.7 °F 64.1 °F 29.44 in ESE 9.7 mph 19.6 mph 98 % 0.07 in
18:06 64.8 °F 64.2 °F 29.43 in SE 6.1 mph 13.0 mph 98 % 0.06 in
18:11 64.9 °F 64.3 °F 29.43 in SSE 7.0 mph 19.0 mph 98 % 0.07 in
18:16 65.0 °F 64.4 °F 29.43 in SSE 6.7 mph 11.5 mph 98 % 0.06 in
18:21 65.0 °F 64.4 °F 29.43 in ESE 6.1 mph 11.5 mph 98 % 0.07 in
18:26 65.0 °F 64.4 °F 29.42 in SE 3.7 mph 9.2 mph 98 % 0.07 in
18:31 65.1 °F 64.5 °F 29.41 in ESE 8.8 mph 16.1 mph 98 % 0.06 in
18:36 65.1 °F 64.5 °F 29.41 in SE 8.0 mph 19.6 mph 98 % 0.07 in
18:41 65.1 °F 64.5 °F 29.41 in ESE 2.9 mph 5.8 mph 98 % 0.06 in
18:46 65.2 °F 64.6 °F 29.40 in SE 6.4 mph 11.5 mph 98 % 0.07 in
18:51 65.2 °F 64.6 °F 29.40 in East 9.1 mph 12.7 mph 98 % 0.06 in
18:56 65.2 °F 64.6 °F 29.40 in SE 5.4 mph 8.1 mph 98 % 0.07 in
19:01 65.1 °F 64.5 °F 29.39 in SE 10.8 mph 11.5 mph 98 % 0.06 in
19:06 65.1 °F 64.5 °F 29.38 in SSE 9.3 mph 18.0 mph 98 % 0.07 in
19:12 65.0 °F 64.4 °F 29.38 in ESE 5.1 mph 11.5 mph 98 % 0.06 in
19:17 65.0 °F 64.4 °F 29.37 in SE 5.3 mph 13.8 mph 98 % 0.06 in
19:22 65.0 °F 64.4 °F 29.36 in SSE 2.7 mph 11.5 mph 98 % 0.06 in
19:27 65.0 °F 64.4 °F 29.35 in SSE 5.3 mph 10.4 mph 98 % 0.05 in
19:32 65.1 °F 64.5 °F 29.34 in ESE 7.8 mph 16.1 mph 98 % 0.06 in
19:37 65.2 °F 64.6 °F 29.34 in ESE 4.1 mph 10.4 mph 98 % 0.05 in
19:42 65.3 °F 64.7 °F 29.33 in East 5.9 mph 13.8 mph 98 % 0.06 in
19:47 65.3 °F 64.7 °F 29.32 in East 7.6 mph 15.0 mph 98 % 0.05 in
19:52 65.2 °F 64.6 °F 29.31 in ESE 6.2 mph 12.7 mph 98 % 0.06 in
19:57 65.1 °F 64.5 °F 29.31 in SE 9.7 mph 19.6 mph 98 % 0.05 in
20:02 64.9 °F 64.3 °F 29.30 in SE 5.5 mph 8.1 mph 98 % 0.06 in
20:07 64.9 °F 64.3 °F 29.29 in ESE 4.5 mph 8.1 mph 98 % 0.05 in
20:12 64.9 °F 64.3 °F 29.28 in ESE 6.6 mph 13.0 mph 98 % 0.06 in
20:17 64.9 °F 64.3 °F 29.27 in East 7.1 mph 10.4 mph 98 % 0.06 in
20:22 64.8 °F 64.2 °F 29.25 in East 6.0 mph 12.0 mph 98 % 0.06 in
20:28 64.7 °F 64.1 °F 29.24 in East 4.1 mph 6.9 mph 98 % 0.06 in
20:33 64.7 °F 64.1 °F 29.24 in ESE 3.8 mph 7.0 mph 98 % 0.06 in
20:38 64.6 °F 64.0 °F 29.22 in East 3.2 mph 7.0 mph 98 % 0.05 in
20:43 64.5 °F 63.9 °F 29.21 in East 2.9 mph 5.0 mph 98 % 0.05 in
20:48 64.4 °F 63.8 °F 29.20 in East 3.2 mph 5.0 mph 98 % 0.06 in
20:53 64.4 °F 63.8 °F 29.20 in ENE 3.5 mph 3.5 mph 98 % 0.05 in
20:58 64.5 °F 63.9 °F 29.18 in East 5.8 mph 8.0 mph 98 % 0.06 in
21:03 64.4 °F 63.8 °F 29.17 in East 6.4 mph 19.0 mph 98 % 0.05 in
21:08 64.2 °F 63.6 °F 29.15 in East 8.4 mph 10.4 mph 98 % 0.06 in
21:13 63.9 °F 63.3 °F 29.13 in East 9.3 mph 11.5 mph 98 % 0.05 in
21:18 63.7 °F 63.1 °F 29.13 in East 6.6 mph 8.1 mph 98 % 0.05 in
21:23 63.6 °F 63.0 °F 29.12 in East 7.0 mph 9.2 mph 98 % 0.05 in
21:28 63.5 °F 62.9 °F 29.11 in ENE 6.7 mph 10.4 mph 98 % 0.05 in
21:33 63.6 °F 63.0 °F 29.11 in ESE 4.9 mph 8.1 mph 98 % 0.05 in
21:38 63.8 °F 63.2 °F 29.09 in East 3.5 mph 6.0 mph 98 % 0.05 in
21:39 63.8 °F 63.2 °F 29.09 in ESE 3.8 mph 5.0 mph 98 % 0.05 in
21:44 64.2 °F 63.6 °F 29.08 in ESE 8.4 mph 13.8 mph 98 % 0.05 in
21:49 64.5 °F 63.9 °F 29.06 in ESE 3.7 mph 16.1 mph 98 % 0.05 in
21:54 64.9 °F 64.3 °F 29.06 in ESE 7.5 mph 15.0 mph 98 % 0.06 in
21:59 65.3 °F 64.7 °F 29.05 in SSE 5.9 mph 11.5 mph 98 % 0.05 in
22:04 65.7 °F 65.4 °F 29.04 in ESE 9.3 mph 19.6 mph 99 % 0.06 in
22:10 66.1 °F 65.8 °F 29.03 in SE 10.6 mph 25.3 mph 99 % 0.05 in
22:15 66.3 °F 66.0 °F 29.01 in South 11.7 mph 27.6 mph 99 % 0.06 in
22:20 66.6 °F 66.0 °F 29.00 in ESE 10.8 mph 19.6 mph 98 % 0.05 in
22:25 66.8 °F 66.5 °F 29.00 in NE 14.6 mph 26.5 mph 99 % 0.05 in
22:30 67.0 °F 66.4 °F 29.00 in SE 14.7 mph 23.0 mph 98 % 0.06 in
22:36 67.2 °F 66.7 °F 28.99 in SE 15.0 mph 37.0 mph 98 % 0.00 in
22:40 67.4 °F 67.1 °F 28.97 in SE 12.0 mph 25.0 mph 99 % 0.00 in
22:45 67.5 °F 66.9 °F 28.96 in SE 15.0 mph 25.0 mph 98 % 0.00 in
22:51 67.6 °F 67.0 °F 28.95 in SE 15.0 mph 31.0 mph 98 % 0.00 in
22:56 67.6 °F 67.0 °F 28.95 in SSE 13.0 mph 24.0 mph 98 % 0.00 in
23:01 67.5 °F 66.9 °F 28.96 in South 12.6 mph 34.5 mph 98 % 0.06 in
23:06 67.4 °F 66.8 °F 29.01 in SE 12.8 mph 32.2 mph 98 % 0.05 in
23:11 67.3 °F 66.4 °F 28.96 in SSE 12.4 mph 21.9 mph 97 % 0.05 in
23:16 67.1 °F 66.2 °F 28.97 in SE 17.0 mph 33.4 mph 97 % 0.05 in
23:21 66.7 °F 65.5 °F 28.94 in South 9.8 mph 18.4 mph 96 % 0.05 in
23:24 66.6 °F 65.4 °F 28.70 in SSE 14.3 mph 21.9 mph 96 % 0.06 in
23:29 66.3 °F 65.1 °F 28.92 in SE 15.3 mph 28.8 mph 96 % 0.05 in
23:30 66.3 °F 65.1 °F 28.92 in SSE 9.1 mph 19.6 mph 96 % 0.05 in
23:35 66.1 °F 64.9 °F 28.92 in ESE 6.9 mph 16.1 mph 96 % 0.06 in
23:40 66.0 °F 64.8 °F 28.93 in SSE 5.1 mph 10.4 mph 96 % 0.05 in
23:45 66.0 °F 64.8 °F 28.93 in SSE 2.9 mph 5.8 mph 96 % 0.06 in
23:50 65.9 °F 64.7 °F 28.99 in South 3.0 mph 8.0 mph 96 % 0.00 in
23:55 65.8 °F 64.6 °F 28.99 in SSW 4.0 mph 10.4 mph 96 % 0.06 in
Crab Meadow Weather
Compliments of Weather Underground - 3 mb

Script developed by  Jim McMurry - jmcmurry@mwt.net Adapted for the template by  Wim van der Kuil - Leuven-Template.eu

Astronomy: The rings of Saturn are made of ice and rock.